Capitol Logistics 11


VHHH
Chek Lap Kok International
Hong Kong, HK
PANC
Ted Stevens Anchorage International Airport
Anchorage, US

Route Details

Aircraft Information
Primary: Boeing 747-400BCF
Backup: Boeing 777-200LRF
Route Data
Distance: 4414nm
Sched. Duration: 9h 00m
Avg. Duration: 9h 66m (+66m)
Times Flown: 9
Recm'd Route: OCEAN V3 ENVAR M750 MEXIR M750 BUNGU Y81 SYOYU Y809 SPEAR Y808 PEXEL A590 POWAL A590 PINSO A590 HAMND NEELL6
Planned Altitude: 33,000ft
Origin Wx: VHHH 291900Z 04006KT 9999 FEW018 SCT035 24/19 Q1017 NOSIG
Dest. Wx: PANC 291925Z 34003KT 7SM SCT008 M04/M07 A2995 RMK AO2 T10391067
Notes:

Financial History
Total Freight: 1,951,852lbs
Average Load: 216,872lbs/flt
Fuel Used: 1,818,829lbs
Avg. Fuel Used: 202,092lbs/flt
Fuel Expense: $2,164,407
Avg. Fuel Expense: $240,490
Avg. Fuel Cost: $1.19/lbs
Total Gross Income: $17,547,150
Pilot Pay: $1,901
Total Expenses: $1,895,560
Total Revenue: $13,465,573
Average Revenue: $1,949,683.28